Wind_Speed
55 56 57 57 58 58 58 59 59 59 60 60 61 61 61 61 61 59 58 56 56 55 56 56 56 57 58 58 57 56 55 54 53 53 52 52 52 51 50 50 50 50
55 56 57 58 58 59 59 60 61 61 62 62 62 63 62 62 61 59 57 56 55 55 56 56 56 56 56 56 55 53 52 52 52 51 51 50 49 48 47 47 47 47
55 56 57 58 59 60 60 61 62 62 63 63 63 63 63 62 61 58 56 55 54 55 55 55 54 54 54 53 52 52 52 52 51 50 49 48 47 47 47 47 48 48
55 56 57 58 59 60 61 62 63 63 64 64 64 64 63 62 60 58 55 54 54 54 53 52 50 51 52 52 52 52 53 53 51 51 50 49 48 49 50 51 52 53
54 56 57 58 59 60 61 62 63 63 64 64 64 64 63 61 59 56 55 54 53 52 50 48 47 49 51 52 52 53 53 53 52 52 51 51 52 54 55 56 57 58
51 54 56 58 59 60 61 62 63 63 63 63 62 61 61 59 57 56 55 53 51 49 46 45 46 48 50 52 53 53 54 54 54 53 53 54 56 58 60 61 62 63
46 49 51 54 56 58 59 60 61 61 61 61 60 60 59 58 56 55 54 53 51 48 45 46 48 49 50 52 53 54 55 55 55 55 57 59 61 62 64 65 66 66
45 46 48 50 52 54 55 57 58 59 59 59 60 59 59 58 58 57 55 52 51 49 47 48 50 51 52 54 55 56 57 57 57 59 61 63 64 65 67 68 68 68
46 47 48 49 51 52 53 54 56 58 59 59 59 59 58 58 58 58 57 55 52 50 49 50 52 54 55 56 56 57 57 59 61 62 64 65 66 68 69 69 70 70
47 49 50 51 52 53 53 55 56 57 58 59 58 58 57 56 55 55 56 57 56 53 53 53 55 56 57 58 58 58 59 61 63 64 66 68 69 70 70 70 71 72
48 50 51 53 54 54 54 55 54 55 56 56 56 55 55 55 55 54 54 57 58 56 56 57 58 58 59 59 59 60 61 62 64 66 69 70 70 70 71 71 72 73
46 48 50 52 53 54 54 54 53 54 54 54 54 54 54 54 55 56 55 57 58 57 57 58 59 59 60 60 61 61 63 65 67 69 69 69 69 70 71 72 74 76
46 47 48 50 51 52 52 52 53 53 52 51 52 52 53 53 54 55 56 57 57 57 58 59 60 61 62 62 63 64 65 66 67 68 68 69 70 71 73 75 77 79
47 47 47 48 49 50 51 52 52 52 52 52 53 53 54 54 54 55 55 56 57 58 59 60 61 62 63 64 65 65 65 65 66 67 69 71 73 74 76 78 80 81
47 47 46 46 48 50 52 54 54 53 52 52 52 53 54 53 54 54 55 56 57 59 60 61 62 63 63 63 63 63 64 65 67 70 72 74 75 77 79 80 81 83
46 46 45 46 48 51 53 54 54 54 53 52 52 54 54 53 53 54 55 56 58 58 59 60 60 60 60 61 62 63 65 69 71 73 75 76 77 79 80 82 83 84
46 45 43 45 48 50 50 50 50 50 50 50 51 53 53 53 53 54 55 56 57 57 58 58 59 59 60 62 64 67 70 72 74 75 76 78 79 81 82 83 84 84
44 43 42 44 44 44 43 43 44 45 46 47 49 50 51 52 54 55 56 56 57 57 57 58 59 62 64 66 69 71 73 75 76 77 79 80 81 82 83 84 84 84
41 41 41 41 39 38 39 41 42 44 45 46 48 49 51 53 54 54 55 56 56 57 58 61 63 66 68 71 73 74 75 76 78 79 81 82 82 83 83 83 83 83
38 38 38 38 37 38 39 40 41 42 44 45 47 49 51 52 53 54 55 56 58 60 62 65 68 70 72 74 75 76 78 79 81 81 82 82 83 83 84 84 84 84
37 37 37 37 37 38 38 39 39 40 42 44 47 50 52 53 55 56 58 60 62 65 67 69 71 73 74 76 77 79 80 81 82 82 82 83 83 84 84 84 84 85
37 38 38 37 37 37 37 37 38 40 43 47 50 53 55 56 58 60 62 64 67 68 70 72 73 75 76 78 79 80 81 81 81 82 82 83 83 84 84 85 85 86
38 39 39 37 36 35 35 36 39 42 47 50 53 55 57 59 62 64 66 68 70 71 73 74 76 77 79 79 80 80 80 81 81 82 82 83 83 84 85 86 87 88
38 38 38 36 35 35 36 39 43 47 51 54 56 58 60 62 64 67 68 70 72 73 75 77 78 79 80 80 80 80 80 81 81 82 83 84 84 85 86 87 87 88
37 37 36 35 35 36 39 44 47 51 53 56 58 60 62 65 67 69 71 73 74 76 78 79 80 80 80 80 80 80 81 81 82 83 84 84 85 85 86 87 87 89
37 36 34 35 37 40 44 47 50 52 55 57 60 63 65 68 70 72 73 75 76 78 79 79 79 79 79 80 80 81 82 82 83 84 84 85 85 86 87 88 89 90
Wind_Direction
253 253 252 253 253 254 254 255 256 257 259 261 263 265 265 266 267 268 269 270 272 273 274 276 277 278 278 279 280 280 280 280 279 279 279 279 278 278 278 278 279 280
254 253 253 253 253 254 255 255 256 258 259 261 262 263 264 265 267 268 270 272 274 275 276 277 277 278 278 279 279 279 278 277 276 277 277 277 277 277 278 279 280 282
256 254 254 253 253 254 255 256 257 258 260 261 262 263 264 266 267 269 271 273 275 275 276 277 277 278 278 278 278 276 274 273 274 274 274 275 276 277 279 281 283 284
257 256 254 254 254 254 255 256 257 259 260 262 262 263 265 266 268 270 271 273 274 275 275 276 276 276 276 276 275 272 271 271 272 273 273 274 277 280 283 285 286 287
260 258 257 256 256 256 257 257 258 259 260 261 262 264 265 267 269 271 272 273 274 274 274 274 273 273 272 272 270 268 269 270 271 273 274 276 279 282 285 288 289 290
264 262 261 260 260 260 261 261 262 263 263 264 265 266 268 269 270 270 270 273 274 274 272 271 270 269 268 268 268 268 270 271 273 275 277 280 283 286 288 289 290 291
266 265 264 264 264 264 265 265 265 266 267 268 268 269 270 270 269 268 269 272 274 273 270 267 267 267 267 267 269 271 273 274 276 278 281 284 286 288 289 290 291 291
266 266 266 266 266 266 266 267 267 267 267 267 267 268 269 268 268 267 269 272 273 272 268 266 266 267 267 268 271 274 275 276 278 280 283 285 287 289 290 291 291 291
265 266 266 266 266 266 267 267 267 267 266 266 266 267 268 269 269 269 269 270 272 270 267 265 266 267 269 271 273 275 276 276 279 282 285 287 289 290 291 291 291 292
265 265 265 265 265 266 266 266 266 267 267 267 267 267 269 270 271 271 270 269 270 270 268 267 268 270 272 273 275 276 277 279 282 285 287 289 290 290 290 291 291 292
265 265 265 266 266 267 267 268 268 268 269 270 271 271 270 271 271 271 270 268 269 269 269 269 270 271 273 275 277 278 280 282 285 287 289 290 290 290 290 291 292 293
267 266 266 267 268 269 269 270 270 269 270 271 271 270 270 269 269 270 269 268 269 269 269 270 272 273 275 276 278 280 282 284 286 288 288 289 289 290 291 292 293 294
269 267 267 267 268 270 270 268 268 267 267 268 269 270 270 270 269 269 269 270 271 272 273 274 275 277 278 280 281 283 284 286 287 287 288 290 291 292 293 293 294 294
271 270 269 268 269 270 268 265 264 264 264 265 267 270 271 272 272 272 273 275 276 277 277 278 280 281 282 283 284 285 286 287 288 289 290 292 292 293 293 294 294 295
271 271 271 270 270 269 267 265 264 264 264 265 267 269 272 273 274 275 277 278 279 280 281 282 283 284 285 285 285 286 287 288 289 290 291 292 292 293 293 294 295 295
270 270 270 269 268 268 267 267 266 265 265 265 267 269 272 275 277 278 280 280 281 283 284 284 285 285 285 285 286 287 288 289 290 290 291 291 292 293 294 295 295 295
269 269 268 267 267 267 267 267 265 264 264 265 266 269 272 275 278 280 281 282 283 284 284 284 284 285 285 286 286 287 288 289 289 290 291 292 293 294 295 295 295 294
269 268 267 266 266 266 265 264 263 263 265 268 270 272 275 277 279 280 281 282 283 283 283 284 285 286 286 286 286 287 288 289 290 291 293 294 295 295 295 294 294 293
267 265 264 262 261 260 259 261 263 266 269 272 274 276 277 278 279 280 280 281 282 283 284 285 285 285 285 285 286 288 289 291 292 293 294 295 294 294 294 293 293 293
264 261 259 257 255 255 258 261 265 268 271 274 275 277 277 278 279 280 281 282 282 283 284 284 284 285 286 287 289 291 292 293 294 294 294 294 294 294 293 293 293 293
259 256 254 252 253 254 258 262 266 269 272 274 275 277 277 278 279 280 281 281 282 282 283 283 284 286 288 290 291 292 292 293 293 293 293 293 293 292 292 292 293 293
257 254 253 253 254 256 259 263 267 270 272 273 274 275 276 277 278 278 279 280 281 282 283 285 287 289 290 290 291 291 291 292 292 292 292 292 291 292 292 293 294 295
259 257 256 255 256 258 262 265 268 270 271 271 272 273 274 275 276 277 279 280 282 284 286 288 289 290 290 290 290 290 290 291 291 291 291 292 292 293 294 295 295 296
261 258 257 258 260 263 266 267 268 269 269 271 272 273 275 277 278 279 281 282 284 286 288 289 289 289 289 290 290 290 291 291 291 291 292 293 294 294 295 295 296 296
261 259 258 261 264 265 266 266 266 268 269 272 274 276 277 278 279 280 281 283 285 287 288 288 288 288 289 289 290 290 291 291 292 293 293 294 294 295 295 295 296 296
261 261 262 264 264 265 266 267 268 271 273 274 276 277 278 279 280 282 283 285 286 287 287 287 288 289 289 290 291 291 292 293 293 294 294 295 295 295 296 296 296 297
Height
5623 5623 5623 5624 5624 5624 5625 5625 5626 5626 5626 5626 5626 5626 5625 5625 5625 5626 5626 5626 5626 5626 5625 5625 5625 5624 5623 5623 5622 5622 5622 5621 5621 5621 5620 5619 5618 5618 5617 5616 5615 5614
5616 5616 5617 5617 5617 5617 5618 5618 5618 5619 5619 5619 5619 5619 5618 5618 5619 5619 5620 5620 5620 5619 5619 5618 5618 5617 5616 5616 5616 5616 5615 5615 5614 5614 5613 5612 5612 5611 5610 5609 5608 5607
5608 5609 5610 5610 5610 5610 5611 5611 5611 5612 5612 5612 5612 5612 5612 5612 5612 5613 5613 5613 5613 5612 5612 5611 5611 5610 5610 5609 5609 5609 5609 5608 5608 5607 5607 5606 5605 5604 5603 5602 5601 5600
5601 5602 5602 5603 5603 5603 5604 5604 5604 5605 5605 5605 5605 5605 5605 5605 5605 5606 5607 5607 5606 5605 5605 5605 5604 5604 5603 5603 5603 5603 5602 5602 5601 5600 5600 5599 5598 5597 5596 5595 5593 5592
5595 5595 5596 5596 5596 5597 5597 5597 5597 5598 5598 5598 5598 5598 5598 5598 5599 5599 5600 5599 5599 5599 5598 5598 5598 5598 5597 5596 5596 5596 5595 5594 5594 5593 5592 5591 5590 5589 5588 5587 5585 5584
5588 5588 5589 5589 5589 5590 5590 5590 5590 5590 5590 5591 5591 5591 5592 5592 5593 5593 5592 5592 5592 5592 5592 5591 5591 5591 5590 5590 5589 5588 5588 5587 5586 5585 5584 5583 5582 5581 5579 5578 5577 5575
5581 5581 5581 5582 5582 5582 5582 5582 5582 5582 5583 5584 5584 5584 5585 5585 5586 5586 5585 5585 5585 5585 5585 5585 5584 5584 5583 5583 5582 5581 5580 5579 5578 5577 5576 5575 5573 5572 5571 5569 5568 5566
5574 5574 5574 5574 5574 5574 5574 5574 5575 5575 5576 5577 5577 5577 5578 5578 5578 5578 5578 5578 5578 5578 5577 5577 5577 5577 5576 5575 5574 5573 5572 5571 5570 5569 5568 5567 5565 5564 5562 5561 5559 5558
5567 5567 5567 5567 5567 5567 5567 5568 5568 5569 5569 5570 5570 5570 5571 5571 5571 5571 5571 5571 5571 5570 5570 5570 5570 5569 5569 5568 5567 5566 5565 5563 5562 5561 5560 5558 5557 5555 5554 5552 5551 5549
5561 5560 5560 5560 5560 5560 5560 5561 5561 5562 5562 5562 5563 5563 5563 5563 5563 5563 5564 5564 5563 5563 5563 5562 5562 5561 5560 5559 5558 5557 5556 5555 5554 5553 5551 5550 5548 5546 5545 5543 5541 5539
5553 5553 5553 5553 5553 5553 5554 5554 5555 5555 5556 5556 5556 5556 5556 5556 5556 5556 5556 5556 5556 5555 5555 5554 5553 5553 5552 5551 5550 5549 5548 5547 5546 5544 5543 5541 5539 5537 5536 5534 5532 5530
5546 5546 5545 5545 5546 5546 5547 5548 5548 5549 5549 5549 5549 5549 5549 5548 5548 5548 5548 5548 5547 5547 5546 5546 5545 5544 5544 5543 5542 5541 5540 5539 5538 5536 5534 5532 5530 5529 5527 5525 5523 5521
5539 5538 5538 5538 5539 5540 5540 5541 5542 5542 5542 5542 5541 5541 5541 5540 5540 5540 5540 5540 5539 5539 5538 5538 5537 5537 5536 5535 5535 5534 5533 5531 5529 5527 5526 5523 5521 5520 5517 5515 5513 5511
5532 5531 5531 5532 5532 5533 5534 5534 5534 5534 5534 5534 5534 5534 5533 5533 5532 5532 5532 5532 5532 5531 5531 5530 5529 5529 5528 5528 5527 5526 5524 5522 5520 5518 5516 5514 5512 5510 5508 5505 5503 5500
5525 5525 5525 5525 5526 5526 5526 5526 5527 5527 5527 5527 5527 5527 5526 5525 5525 5525 5525 5524 5524 5524 5523 5523 5522 5521 5521 5520 5519 5517 5515 5513 5511 5509 5507 5505 5503 5500 5498 5495 5492 5490
5518 5518 5518 5519 5519 5519 5519 5520 5520 5520 5520 5520 5520 5519 5519 5518 5518 5518 5517 5517 5517 5517 5516 5515 5514 5513 5513 5512 5510 5509 5507 5505 5503 5501 5498 5496 5493 5490 5487 5485 5482 5479
5511 5511 5512 5512 5513 5513 5513 5513 5513 5513 5513 5513 5513 5512 5512 5512 5511 5511 5510 5510 5510 5509 5508 5507 5507 5506 5505 5503 5502 5501 5499 5496 5494 5491 5488 5486 5483 5480 5476 5474 5471 5468
5504 5505 5505 5506 5506 5506 5506 5506 5506 5506 5506 5506 5506 5505 5505 5505 5504 5504 5503 5503 5502 5502 5501 5500 5499 5498 5496 5495 5494 5492 5490 5487 5484 5481 5478 5475 5472 5469 5466 5463 5460 5457
5498 5498 5499 5499 5499 5499 5499 5500 5500 5499 5499 5499 5499 5499 5498 5498 5497 5497 5496 5495 5495 5494 5493 5492 5491 5489 5488 5486 5485 5483 5480 5477 5473 5470 5467 5463 5460 5458 5455 5452 5449 5446
5492 5493 5493 5493 5493 5493 5493 5493 5493 5493 5493 5493 5493 5493 5492 5491 5491 5490 5489 5488 5487 5486 5485 5484 5482 5481 5479 5477 5474 5472 5469 5465 5462 5459 5456 5453 5449 5447 5444 5441 5438 5435
5487 5487 5487 5487 5487 5487 5487 5487 5487 5487 5487 5487 5487 5486 5486 5485 5484 5483 5482 5481 5480 5479 5478 5476 5474 5472 5470 5467 5464 5461 5458 5455 5452 5449 5446 5442 5439 5436 5433 5430 5426 5423
5482 5482 5481 5481 5481 5481 5481 5481 5481 5481 5481 5481 5481 5481 5479 5479 5477 5476 5475 5474 5472 5471 5469 5468 5466 5463 5460 5457 5454 5452 5449 5446 5443 5440 5437 5433 5429 5426 5422 5419 5415 5411
5476 5476 5475 5475 5475 5475 5475 5475 5476 5476 5476 5476 5475 5474 5473 5472 5471 5469 5468 5466 5464 5462 5460 5458 5456 5453 5450 5447 5445 5442 5440 5437 5434 5430 5426 5423 5419 5415 5411 5407 5402 5398
5471 5470 5470 5470 5470 5470 5470 5470 5470 5470 5470 5469 5468 5467 5466 5464 5463 5461 5460 5458 5456 5454 5451 5448 5446 5443 5440 5437 5434 5432 5429 5426 5423 5420 5416 5412 5408 5404 5399 5395 5391 5387
5465 5465 5464 5464 5464 5465 5465 5465 5465 5464 5463 5462 5461 5460 5459 5457 5455 5454 5452 5449 5447 5444 5441 5438 5435 5432 5430 5426 5423 5421 5419 5416 5412 5409 5405 5401 5397 5392 5388 5384 5379 5375
5460 5459 5459 5459 5459 5460 5459 5459 5458 5457 5457 5456 5454 5453 5451 5449 5447 5445 5442 5440 5437 5434 5431 5428 5424 5421 5419 5416 5413 5411 5408 5405 5401 5397 5393 5389 5385 5381 5376 5372 5367 5363